Location: Bucharest
(44.4268°N, 26.1025°E)
Time: 01:39:12
(UTC+03:00)

ESTCUBE 1 - Pass Details

Date: 05 July 2022
Orbit: 645 x 657 km, 97.9° (Epoch: 16 August)

Event Time Altitude Azimuth Distance (km) Brightness Sun altitude
Exits shadow 23:08:16 30° 147° (SSE) 1,158 ? -16.4°
Maximum altitude 23:10:22 66° 74° (ENE) 709 ? -16.6°
Drops below altitude 10° 23:14:49 10° 353° (N) 2,062 ? -17.0°
Sets 23:17:04 0° 350° (N) 2,979 ? -17.2°
